IRIDIUM 55 [B] (25272 NORAD) Tracking and Keplerian Element Data

This shows tracking and keplerian element data for the satellite.

Feedback or suggestion? Click here.




ElementValue
Catalog25272
NameIRIDIUM 55 [B]
Epoch Orbit8426
Epoch Day348.74219442
Epoch Year2018
RAAN58.9854
Inclination86.4231
Eccentricity0.0002422
Argument of Perigee89.786
Mean Anonmoly270.3616
Mean Motion14.3860857
Decay Rate1.44E-06
L11 25272U 98019A 18348.74219442 .00000144 00000-0 40446-4 0 9993
L22 25272 86.4231 58.9854 0002422 89.7860 270.3616 14.38608570 84268

Live tracking and technical data element details for IRIDIUM 55 [B] (NORAD 25272). IRIDIUM 55 [B] can be tracked NOW for your location showing map with azimuth and elevation plus other details from your city location.

Track the satellite on the map from your city or location and see movement details for azimuth, elevation, latitude, longitude, range, height, and movement on the map or in text.







IsCatalogInMostPopularTable: catalog: 25272, numindb: 50
Update: records affected: 1



GetName: 25272 IRIDIUM 55 [B]

Hit Count: updated at: Sat, 15 Dec 2018 18:57:56 GMT